Temp
50 50 50 50 50 50 50 50 49 49 49 50 50 50 50 50 50 45 41 44 38 33 34 34 34 31 34 33 31 32 33 33 31 29 28 27 26 27 24 26 29 31 30 30 28 26 25 33 33 30 30 33 35 36
50 50 50 50 50 50 49 49 49 49 49 49 49 50 50 50 49 47 38 43 42 36 33 38 37 38 36 35 34 34 33 33 34 29 29 27 22 23 23 23 29 25 30 28 29 26 31 32 33 35 37 35 35 35
49 49 49 49 49 49 49 48 48 48 48 48 48 49 50 50 49 45 39 40 39 34 33 33 32 36 39 38 41 33 33 35 33 34 29 27 23 23 22 22 24 28 31 27 29 28 27 30 33 34 37 35 35 36
48 48 49 48 48 48 48 47 47 47 48 47 48 48 49 50 49 45 39 40 38 34 28 30 38 34 38 41 41 40 37 37 35 34 29 28 24 28 22 26 25 25 30 26 22 25 27 27 29 32 32 33 31 31
48 48 48 48 47 47 47 47 47 46 46 46 47 47 49 49 48 43 41 41 41 34 27 29 33 35 37 39 38 39 37 34 30 29 27 24 27 27 24 27 19 21 21 25 25 29 29 25 26 30 28 27 28 27
48 47 47 47 47 47 46 46 46 46 46 46 46 46 48 47 47 40 32 40 42 39 29 24 31 31 33 36 35 34 34 31 30 28 26 27 29 27 22 18 19 20 22 23 24 25 24 23 24 26 25 25 26 25
47 47 46 46 46 46 46 45 45 45 45 45 46 46 46 46 36 34 31 37 44 40 27 22 26 30 32 32 32 31 31 28 28 26 25 25 26 25 21 17 18 19 20 22 25 27 23 20 18 22 24 24 25 22
47 46 46 46 46 46 45 45 45 45 45 45 45 46 45 44 39 32 35 43 41 34 28 16 18 26 31 27 27 30 27 28 27 26 26 25 26 23 13 17 18 19 20 19 20 22 20 20 21 21 22 22 19 18
46 46 46 46 46 45 44 45 44 44 44 44 44 43 34 30 25 26 42 40 35 30 19 18 15 16 29 27 28 28 27 22 26 23 24 26 19 11 13 16 15 15 17 16 19 19 19 17 17 17 18 17 16 16
46 46 46 45 45 44 44 44 44 43 43 41 33 25 20 23 41 37 26 20 18 19 22 20 22 17 23 26 24 25 25 20 17 22 25 16 11 12 12 12 12 13 15 18 16 15 16 15 15 13 13 14 15 15
46 46 45 45 45 44 44 44 43 42 38 23 14 20 25 37 25 15 9 11 10 10 22 22 20 19 25 21 22 24 19 18 14 18 18 15 11 8 10 11 12 14 14 14 15 15 15 13 12 12 13 14 14 14
46 45 45 44 44 43 44 43 42 33 27 27 31 34 30 17 10 11 -4 10 14 15 20 15 19 20 20 22 19 19 16 15 10 15 11 8 7 11 12 11 12 12 13 12 12 11 12 12 11 9 8 9 11 12
46 45 45 44 43 43 43 42 41 40 36 30 21 12 12 9 5 2 2 4 8 13 15 16 15 16 18 17 11 13 9 7 17 5 5 2 11 11 11 11 11 12 12 12 12 12 11 10 11 5 4 9 7 5
45 45 44 42 42 42 42 40 39 34 23 13 7 5 3 6 11 12 12 13 16 15 14 14 15 11 10 9 1 4 10 11 -0 -1 1 2 7 9 11 12 11 8 8 8 8 9 8 7 5 8 8 6 4 6
45 45 41 40 42 42 40 38 35 22 15 4 7 -0 2 12 15 15 15 16 16 15 13 14 15 11 8 3 2 4 1 -6 -3 1 4 7 9 9 10 10 7 4 -1 -0 -1 3 2 2 1 3 4 2 3 5
45 40 34 41 41 40 36 30 23 21 4 2 0 0 8 2 -1 3 5 9 13 11 13 17 15 12 10 5 2 -4 -4 -4 1 5 8 9 9 8 7 8 6 0 -1 -3 -6 1 3 -2 -1 -1 1 1 2 4
40 28 40 40 40 36 31 20 16 -1 -3 -5 -5 6 3 2 -2 -2 1 3 10 9 12 14 13 11 12 6 2 7 2 7 8 10 11 10 5 2 3 10 10 8 4 -0 -7 -3 -2 -5 -11 -7 -1 3 4 7
30 31 39 39 35 27 15 9 2 -3 -5 -8 -0 -0 5 -1 -3 -3 -3 -2 2 6 10 8 11 11 8 2 5 8 8 9 11 10 9 9 6 6 11 9 9 8 5 1 -5 -5 -7 -8 -5 2 -1 2 2 2
33 32 37 35 29 17 6 3 3 -4 -6 -3 1 2 2 3 3 -1 -2 -2 -0 7 7 8 8 2 5 6 7 9 10 10 9 8 7 7 7 7 6 5 5 3 2 -1 -1 0 -1 -3 -1 1 3 4 3 6
36 35 33 29 27 9 2 -2 2 -1 -5 -0 -1 -5 -4 -2 -3 -7 -8 -3 -4 -3 -1 -2 2 3 4 5 7 9 9 10 9 7 7 6 3 0 4 2 3 3 1 -2 -1 9 -2 0 -0 -0 2 8 8 6
28 26 27 19 5 3 -1 -12 -5 -6 -6 -4 -11 -7 -7 -8 -11 -13 -11 -7 -7 -13 -5 0 2 5 6 5 5 7 4 5 2 1 1 -1 -0 -2 -3 -0 -1 1 -0 1 -2 -0 1 -4 1 3 3 6 6 7
20 27 12 12 1 -2 -4 -3 -5 -2 -6 -9 -10 -12 -17 -14 -18 -15 -12 -9 -9 -3 -1 -1 1 2 5 1 1 -2 -4 -4 -3 2 6 4 -3 -1 -2 -1 -1 -4 -2 -3 -5 -5 -2 1 3 5 4 7 12 8
24 17 5 1 4 1 -3 -4 -5 -10 -4 -8 -16 -11 -15 -19 -16 -11 -13 -11 -4 0 2 2 1 -1 -0 0 1 -1 -5 -5 -4 -6 -4 -6 -6 -3 -5 -5 -8 -10 -7 -5 -7 -8 -4 9 5 7 7 6 7 7
18 3 -1 -5 -8 -3 -10 -12 -11 -11 -13 -10 -16 -12 -14 -18 -11 -11 -12 -3 1 5 4 1 2 3 4 3 2 2 1 -4 -6 -7 -11 -12 -5 -6 -8 -9 -13 -13 -7 -6 -7 -3 -1 1 9 2 3 3 4 4
11 5 -1 -3 -14 -7 -10 -12 -13 -6 -10 -20 -15 -14 -14 -15 -14 -14 -10 -3 0 3 3 4 3 1 -1 1 3 2 -1 -5 -8 -11 -8 -13 -12 -8 -4 -4 -7 -7 -5 -7 -4 2 2 1 -1 0 1 1 4 8
5 -4 -2 -9 -8 -2 -7 -5 -11 -11 -13 -14 -16 -15 -18 -14 -13 -11 -6 -4 1 1 2 2 1 2 2 1 -2 1 0 -7 -11 -13 -7 -10 -13 -12 -14 -13 -7 1 -0 -0 0 0 2 3 4 1 3 6 14 10
-0 -2 -5 5 2 0 -3 -3 -3 -8 -15 -13 -15 -15 -15 -16 -11 -3 3 3 1 3 4 4 2 2 1 1 3 2 -6 -13 -10 -7 -11 -11 -9 -10 -9 -11 -9 -1 2 2 3 5 5 5 5 7 8 10 6 6
-4 -4 -2 -7 -7 -8 -10 -11 -12 -14 -13 -6 -6 -16 -13 -7 -5 -0 -1 -0 2 2 1 1 1 1 -0 0 -0 -4 -7 -15 -10 -11 -12 -9 -12 -9 -9 -5 -2 10 12 7 8 9 9 10 10 10 8 6 4 4
-4 -2 -1 -12 -12 -10 -11 -10 -10 -6 -1 -4 -7 -7 -7 -1 -2 -3 1 -1 -0 -1 -1 0 2 -0 -1 1 -3 -7 -12 -11 -6 -7 -8 -5 -2 1 -1 -2 -1 3 4 4 12 15 14 15 15 13 5 7 7 7
-5 -2 -6 -14 -8 -9 -11 -10 -12 -10 -5 -2 -1 -2 0 -0 -1 -0 -1 -2 -2 -2 -3 -3 -5 -8 -8 -11 -8 -4 -4 -6 -6 -7 -10 -7 -4 1 3 2 2 3 3 5 4 5 14 11 9 5 6 6 6 7
-1 -5 -9 -10 -11 -14 -14 -11 -11 -1 -10 -14 -12 -10 -8 -7 -1 1 -1 -0 -1 -2 -4 -5 -5 -10 -12 -12 -15 -15 -8 -4 -7 -5 -1 1 1 2 2 3 3 3 5 5 6 7 8 6 5 5 5 3 3 5
-6 -14 -9 -12 -15 -15 -17 -19 -20 -16 -16 -15 -14 -15 -13 -9 -9 -3 3 0 -3 -5 0 -7 -12 -7 -10 -11 -14 -13 3 -1 -5 -5 -6 -1 0 2 4 5 5 4 8 7 9 10 6 5 5 4 3 2 2 3
-17 -20 -22 -19 -18 -18 -16 -17 -16 -17 -16 -15 -11 -11 -10 -6 -7 -1 4 2 -3 -6 -8 -8 -8 -8 -10 -12 -13 -12 1 -5 -2 12 13 15 18 17 15 12 13 9 8 7 11 6 4 5 3 2 2 1 1 2
MSLP
1024.57 1023.61 1022.59 1021.74 1020.90 1020.13 1019.47 1018.46 1017.37 1016.36 1015.45 1014.23 1013.31 1012.46 1011.67 1010.90 1010.25 1009.72 1009.45 1009.10 1008.78 1008.10 1007.68 1007.30 1007.07 1006.77 1006.11 1005.74 1005.35 1005.69 1006.14 1006.68 1007.08 1007.64 1008.32 1008.99 1009.49 1009.64 1010.27 1010.45 1010.32 1010.55 1011.54 1011.98 1012.81 1013.19 1013.30 1012.59 1013.49 1013.59 1013.69 1014.03 1014.69 1015.55
1024.76 1023.82 1022.93 1022.00 1021.06 1020.22 1019.59 1018.80 1017.77 1016.77 1015.89 1014.97 1013.85 1012.84 1012.04 1011.32 1010.71 1010.08 1009.61 1009.26 1008.70 1008.50 1008.42 1008.03 1007.81 1007.75 1007.69 1007.11 1006.44 1005.91 1006.01 1006.15 1006.59 1007.37 1008.30 1009.08 1010.21 1010.39 1010.51 1011.26 1011.32 1012.02 1011.48 1011.66 1012.43 1013.40 1013.32 1013.79 1013.75 1013.92 1013.96 1014.45 1015.84 1016.35
1024.90 1023.93 1023.01 1022.17 1021.26 1020.35 1019.70 1019.05 1018.13 1017.11 1016.01 1015.19 1014.33 1013.28 1012.26 1011.59 1011.05 1010.71 1010.37 1009.67 1008.84 1008.72 1008.59 1008.46 1008.65 1008.23 1007.57 1007.20 1006.64 1006.50 1006.76 1007.03 1007.28 1007.59 1008.12 1008.99 1010.01 1010.72 1011.13 1011.62 1012.19 1012.59 1011.98 1012.15 1012.70 1014.77 1015.24 1015.38 1015.31 1015.07 1015.19 1015.71 1016.64 1017.24
1024.89 1023.91 1023.08 1022.38 1021.55 1020.50 1019.69 1019.16 1018.31 1017.33 1016.20 1015.22 1014.35 1013.41 1012.30 1011.60 1011.19 1010.96 1010.90 1010.46 1009.84 1009.55 1009.47 1009.66 1009.15 1008.95 1008.49 1007.25 1006.86 1006.88 1007.20 1007.63 1007.99 1008.16 1008.77 1009.56 1010.51 1010.91 1011.83 1012.14 1012.93 1013.65 1013.16 1013.73 1015.33 1016.18 1016.51 1017.00 1016.99 1017.05 1017.23 1017.57 1018.21 1018.84
1024.94 1023.93 1023.12 1022.28 1021.59 1020.69 1019.78 1018.95 1018.23 1017.32 1016.29 1015.31 1014.34 1013.43 1012.25 1011.59 1011.13 1010.98 1010.88 1010.85 1010.36 1010.49 1010.19 1010.04 1009.97 1009.74 1009.23 1008.44 1007.93 1007.86 1008.02 1008.38 1008.81 1009.40 1009.97 1010.88 1011.31 1011.84 1012.83 1013.29 1015.19 1015.89 1015.61 1015.40 1015.94 1016.22 1016.66 1018.48 1018.85 1018.62 1018.46 1019.56 1020.10 1020.36
1025.06 1024.12 1023.08 1022.33 1021.56 1020.70 1019.87 1018.88 1018.00 1017.10 1016.10 1015.07 1014.14 1013.24 1012.21 1011.59 1011.04 1010.77 1010.95 1010.83 1010.67 1010.58 1010.66 1010.97 1011.08 1010.71 1009.98 1009.35 1008.87 1009.02 1009.06 1009.20 1009.68 1010.26 1011.02 1011.33 1011.98 1012.57 1013.78 1015.61 1017.43 1017.56 1017.08 1016.84 1016.98 1017.57 1018.23 1019.86 1020.28 1020.17 1020.09 1021.06 1021.67 1022.26
1025.15 1024.15 1023.07 1022.23 1021.42 1020.76 1019.85 1018.92 1017.82 1016.78 1015.83 1014.74 1013.72 1012.81 1012.16 1011.61 1011.62 1011.72 1012.15 1012.03 1011.05 1010.73 1011.09 1011.62 1011.52 1011.36 1010.89 1010.31 1010.06 1009.98 1010.07 1010.39 1010.67 1011.33 1012.01 1012.42 1012.88 1013.32 1015.27 1017.51 1018.94 1018.83 1018.64 1018.58 1018.64 1018.58 1020.00 1021.07 1021.96 1021.98 1021.94 1022.61 1023.17 1024.00
1025.11 1024.18 1023.11 1022.30 1021.41 1020.68 1019.79 1018.82 1017.76 1016.49 1015.34 1014.32 1013.32 1012.48 1012.07 1011.84 1011.73 1011.94 1012.01 1011.72 1011.32 1011.35 1011.61 1012.52 1012.54 1012.26 1011.98 1011.64 1011.43 1011.31 1011.23 1011.15 1011.63 1012.30 1012.74 1013.44 1014.06 1015.35 1018.30 1020.01 1020.42 1020.54 1020.40 1020.13 1020.11 1019.87 1020.99 1022.14 1022.79 1023.41 1023.59 1023.87 1024.44 1025.22
1024.99 1024.19 1023.23 1022.22 1021.35 1020.68 1019.79 1018.75 1017.74 1016.42 1015.08 1013.86 1012.96 1012.35 1012.43 1012.56 1012.94 1012.67 1012.07 1011.76 1011.92 1012.55 1012.90 1013.72 1014.24 1013.81 1013.18 1012.76 1012.47 1012.18 1012.17 1012.77 1013.13 1013.51 1013.98 1014.50 1016.44 1018.83 1021.09 1021.59 1022.05 1022.02 1021.52 1022.04 1021.99 1022.10 1022.70 1023.28 1024.11 1024.53 1024.80 1025.29 1025.72 1026.51
1024.94 1024.15 1023.25 1022.26 1021.42 1020.72 1019.79 1018.78 1017.78 1016.57 1015.18 1014.06 1013.35 1013.47 1013.88 1013.72 1013.13 1012.61 1012.48 1012.90 1013.32 1014.26 1014.46 1015.49 1015.34 1015.00 1014.63 1013.72 1013.55 1013.50 1013.61 1014.42 1014.79 1015.53 1015.59 1017.03 1020.16 1022.17 1022.92 1023.25 1023.39 1023.36 1023.19 1023.14 1023.10 1023.84 1024.22 1024.62 1025.33 1025.87 1026.22 1026.67 1026.94 1027.42
1025.02 1024.15 1023.30 1022.23 1021.47 1020.88 1019.89 1018.89 1017.99 1017.01 1016.09 1016.05 1016.35 1015.89 1014.81 1013.77 1013.58 1014.21 1015.38 1016.17 1017.17 1017.28 1017.14 1016.99 1016.66 1016.20 1015.50 1015.28 1014.95 1015.09 1015.30 1015.75 1016.20 1016.78 1017.08 1019.12 1021.55 1023.11 1023.84 1024.17 1024.42 1024.49 1024.39 1024.43 1024.55 1024.73 1025.17 1025.85 1026.68 1027.22 1027.50 1027.71 1028.00 1028.39
1024.81 1024.04 1023.29 1022.41 1021.67 1021.00 1020.00 1019.03 1018.39 1018.05 1017.84 1017.25 1016.93 1016.54 1016.00 1016.31 1016.91 1017.45 1019.34 1019.25 1019.33 1019.66 1018.84 1018.37 1017.84 1017.47 1016.81 1016.50 1016.37 1016.62 1016.97 1017.29 1018.19 1018.42 1019.13 1021.43 1023.37 1024.31 1025.10 1025.49 1025.60 1025.61 1025.80 1026.00 1026.02 1026.51 1026.96 1027.42 1027.92 1028.43 1028.89 1029.02 1029.24 1029.35
1024.70 1023.90 1023.16 1022.66 1022.04 1021.03 1020.12 1019.24 1018.63 1018.01 1017.22 1017.05 1017.54 1018.22 1019.10 1020.32 1021.08 1022.23 1022.82 1022.10 1021.79 1021.43 1020.67 1020.17 1018.93 1018.49 1017.70 1017.72 1018.15 1018.26 1018.88 1019.55 1019.50 1020.44 1022.11 1023.52 1024.22 1025.11 1025.73 1026.21 1026.60 1026.73 1026.76 1026.87 1027.21 1027.65 1028.16 1028.81 1029.12 1029.58 1029.96 1029.94 1029.95 1029.98
1024.50 1023.83 1023.27 1022.93 1022.31 1021.29 1020.26 1019.65 1018.92 1018.38 1018.70 1020.19 1021.43 1022.33 1023.55 1024.55 1024.85 1024.79 1024.63 1024.08 1023.43 1022.83 1021.99 1021.15 1020.00 1019.66 1019.26 1019.41 1020.11 1020.48 1021.01 1020.96 1022.02 1022.84 1023.72 1024.54 1025.09 1025.76 1026.30 1026.72 1027.11 1027.86 1028.21 1028.55 1028.96 1029.42 1029.74 1029.96 1030.13 1030.25 1030.36 1030.27 1030.37 1030.14
1024.38 1023.71 1023.59 1022.99 1022.25 1021.49 1020.54 1020.07 1019.63 1019.95 1021.50 1023.64 1024.44 1026.76 1026.69 1026.47 1026.09 1025.89 1025.45 1024.69 1024.28 1023.77 1022.72 1021.41 1020.53 1020.42 1020.40 1020.83 1021.44 1021.88 1022.48 1023.12 1023.66 1024.11 1024.58 1025.16 1025.84 1026.44 1027.04 1027.65 1028.20 1028.85 1029.33 1029.59 1029.86 1030.14 1030.35 1030.61 1030.69 1030.73 1030.50 1030.28 1030.11 1029.87
1024.13 1024.00 1023.83 1023.03 1022.39 1021.83 1021.16 1020.73 1020.78 1021.78 1024.68 1026.48 1027.95 1028.49 1028.01 1027.72 1027.72 1027.30 1026.76 1026.08 1025.34 1024.31 1022.93 1022.04 1021.26 1020.98 1021.27 1021.85 1022.52 1023.24 1023.62 1024.08 1024.49 1024.78 1025.40 1025.99 1026.65 1027.27 1027.79 1028.26 1028.80 1029.25 1029.71 1030.12 1030.46 1030.76 1030.96 1031.02 1030.96 1030.79 1030.33 1030.03 1029.91 1029.57
1024.07 1024.57 1023.97 1023.25 1022.64 1022.31 1022.02 1021.82 1022.73 1025.62 1027.61 1029.10 1030.21 1029.79 1029.71 1029.73 1029.69 1029.15 1028.68 1027.70 1026.57 1025.33 1024.12 1022.95 1022.18 1021.97 1022.09 1022.68 1023.70 1024.07 1024.68 1024.94 1025.15 1025.62 1026.19 1026.80 1027.50 1028.14 1028.47 1028.73 1029.18 1029.71 1030.28 1030.72 1030.99 1031.08 1031.09 1030.92 1030.90 1031.01 1030.68 1030.10 1029.70 1029.15
1024.13 1024.29 1024.02 1023.55 1023.11 1023.05 1023.81 1024.72 1026.17 1028.07 1030.17 1031.00 1030.89 1030.55 1030.35 1030.26 1030.24 1030.01 1029.51 1028.98 1028.02 1026.77 1025.55 1024.76 1024.12 1023.34 1023.70 1024.31 1024.87 1025.25 1025.61 1025.92 1026.23 1026.75 1027.44 1028.06 1028.57 1028.86 1029.11 1029.44 1029.81 1030.22 1030.58 1030.97 1031.31 1031.35 1031.36 1031.51 1031.21 1030.80 1030.22 1029.45 1028.90 1028.30
1024.05 1024.18 1024.01 1023.84 1023.80 1024.54 1026.08 1027.39 1027.92 1030.07 1031.15 1031.36 1031.10 1031.07 1031.03 1030.88 1030.65 1030.59 1030.30 1029.70 1028.87 1027.83 1027.06 1025.80 1025.59 1025.93 1026.22 1026.57 1026.64 1026.53 1026.77 1026.94 1027.52 1028.14 1028.72 1029.18 1029.53 1029.86 1030.09 1030.26 1030.40 1030.62 1030.86 1031.07 1031.23 1031.12 1030.90 1030.67 1030.51 1030.10 1029.66 1029.18 1028.70 1028.05
1023.98 1024.21 1024.25 1024.41 1024.11 1025.82 1028.31 1029.79 1029.44 1030.22 1031.40 1031.40 1031.63 1031.80 1032.08 1031.96 1031.79 1031.56 1031.25 1030.58 1029.74 1029.12 1028.72 1028.56 1028.58 1028.64 1028.56 1028.65 1028.57 1028.34 1028.35 1028.34 1028.59 1029.14 1029.65 1030.05 1030.45 1030.65 1030.80 1030.79 1030.82 1030.77 1030.84 1030.86 1030.76 1030.35 1030.62 1030.39 1029.97 1029.60 1029.13 1028.52 1028.16 1027.85
1024.30 1024.60 1024.54 1024.89 1026.45 1027.44 1029.44 1031.08 1031.20 1031.42 1031.61 1032.07 1032.72 1032.88 1032.97 1032.76 1032.88 1032.84 1032.66 1031.84 1031.07 1031.59 1031.12 1030.65 1030.29 1030.05 1030.00 1029.99 1029.89 1029.77 1029.86 1029.72 1030.00 1030.14 1030.38 1030.68 1031.10 1031.25 1031.19 1031.05 1031.04 1031.04 1031.19 1031.19 1031.09 1030.77 1030.56 1030.53 1029.91 1029.34 1028.92 1028.38 1027.76 1027.20
1024.75 1024.72 1025.57 1026.20 1027.61 1029.01 1030.37 1031.54 1031.96 1031.96 1032.37 1033.10 1033.48 1034.03 1035.09 1035.02 1034.97 1034.21 1033.62 1032.73 1033.14 1032.61 1031.95 1031.52 1031.28 1031.17 1030.82 1031.01 1031.14 1031.25 1031.36 1031.17 1031.08 1030.85 1030.67 1030.82 1031.61 1031.69 1031.65 1031.67 1031.57 1031.65 1031.53 1031.45 1031.40 1031.28 1030.78 1030.22 1029.57 1028.92 1028.48 1027.89 1027.09 1026.72
1024.91 1025.48 1027.06 1027.95 1029.14 1030.26 1032.05 1031.89 1032.41 1032.90 1033.46 1034.12 1034.75 1035.42 1035.94 1035.72 1035.11 1034.59 1034.33 1033.92 1033.11 1032.42 1032.06 1031.83 1031.78 1031.83 1031.70 1031.67 1031.65 1031.76 1031.84 1031.92 1031.90 1031.85 1031.91 1032.08 1032.04 1031.94 1031.96 1031.87 1031.87 1032.08 1031.82 1031.48 1031.19 1030.94 1030.51 1029.76 1029.28 1028.76 1028.17 1027.68 1027.18 1026.56
1025.87 1027.55 1028.97 1029.96 1030.94 1031.82 1032.25 1032.96 1033.37 1033.71 1034.00 1034.82 1035.82 1036.20 1036.42 1035.84 1035.07 1034.57 1034.64 1033.73 1032.88 1032.33 1032.08 1031.93 1031.84 1031.82 1031.81 1031.77 1031.93 1032.15 1032.35 1032.59 1032.70 1032.61 1032.67 1032.95 1032.75 1032.56 1032.31 1032.10 1031.84 1031.72 1031.68 1031.44 1030.94 1030.49 1030.04 1029.61 1029.10 1028.64 1028.14 1027.63 1026.98 1026.33
1027.16 1029.92 1030.78 1031.38 1032.25 1032.61 1033.07 1033.67 1033.93 1034.01 1035.05 1036.07 1036.26 1036.38 1036.11 1035.72 1035.35 1034.95 1034.31 1033.44 1032.85 1032.53 1032.37 1032.22 1032.21 1032.26 1032.42 1032.35 1032.40 1032.58 1032.91 1033.28 1033.65 1033.62 1033.07 1033.01 1033.05 1032.63 1032.28 1031.88 1031.54 1031.32 1031.03 1031.19 1030.84 1030.41 1029.90 1029.34 1028.79 1028.22 1027.67 1027.21 1026.50 1025.60
1028.28 1030.53 1031.39 1031.35 1031.99 1032.35 1032.91 1033.74 1034.01 1034.42 1035.02 1035.69 1036.00 1036.10 1035.75 1035.61 1035.17 1034.57 1033.71 1033.22 1032.97 1032.83 1032.78 1032.76 1032.74 1032.69 1032.67 1032.74 1032.84 1032.83 1033.11 1033.46 1033.74 1033.76 1033.12 1033.01 1033.03 1033.17 1032.95 1032.60 1031.99 1031.28 1030.73 1030.58 1030.55 1030.03 1029.35 1028.70 1028.14 1027.58 1027.11 1026.42 1025.87 1025.46
1029.31 1030.67 1031.16 1031.06 1031.49 1032.16 1032.97 1033.47 1033.79 1034.18 1034.77 1035.28 1035.61 1035.66 1035.64 1035.21 1034.46 1033.74 1033.17 1033.03 1033.04 1032.95 1032.95 1032.96 1032.99 1033.03 1033.02 1032.89 1032.82 1032.76 1032.92 1033.19 1033.38 1032.98 1032.56 1032.53 1032.44 1032.42 1032.57 1032.53 1031.68 1030.84 1030.10 1029.68 1029.42 1029.07 1028.69 1028.07 1027.49 1026.99 1026.50 1026.01 1025.73 1025.44
1030.09 1030.63 1031.20 1032.02 1032.35 1032.83 1033.52 1034.11 1034.47 1034.48 1034.65 1034.53 1034.81 1035.13 1034.85 1034.29 1033.86 1033.41 1033.28 1033.20 1033.23 1033.18 1033.18 1033.17 1033.18 1033.25 1033.27 1033.08 1032.98 1033.09 1032.87 1032.77 1032.47 1032.17 1032.08 1031.91 1031.66 1031.58 1031.59 1031.56 1031.28 1030.00 1029.00 1029.16 1028.55 1028.09 1027.73 1027.22 1026.65 1026.22 1025.95 1025.74 1025.38 1025.02
1030.86 1031.04 1031.36 1032.76 1033.48 1033.78 1034.21 1034.47 1034.49 1034.29 1034.11 1034.21 1034.46 1034.34 1033.95 1033.64 1033.50 1033.36 1033.32 1033.33 1033.33 1033.50 1033.59 1033.63 1033.46 1033.42 1033.26 1033.08 1032.88 1032.88 1032.94 1033.15 1032.85 1032.83 1032.59 1032.35 1031.87 1031.40 1030.98 1030.81 1030.38 1029.80 1029.30 1028.59 1027.62 1027.33 1026.81 1026.13 1025.68 1025.49 1025.62 1025.47 1025.09 1024.69
1031.26 1031.48 1032.27 1033.32 1034.05 1034.77 1035.14 1034.96 1035.04 1034.70 1034.40 1034.34 1034.36 1034.12 1033.88 1033.68 1033.39 1033.19 1033.39 1033.44 1033.64 1033.83 1033.81 1033.86 1033.85 1033.83 1033.96 1033.92 1033.64 1033.06 1032.70 1032.67 1032.76 1032.78 1032.57 1032.23 1031.71 1031.10 1030.67 1030.23 1029.71 1029.12 1028.63 1028.12 1027.52 1026.90 1026.32 1025.90 1025.81 1025.65 1025.50 1025.23 1024.93 1024.56
1031.65 1032.16 1033.14 1034.09 1034.87 1035.47 1035.64 1035.54 1035.19 1034.95 1035.05 1035.18 1034.97 1034.88 1034.47 1034.06 1033.47 1033.17 1033.32 1033.36 1033.58 1033.75 1033.87 1034.10 1034.02 1033.96 1034.01 1034.02 1034.13 1033.65 1033.18 1032.55 1032.42 1032.27 1031.99 1031.42 1030.90 1030.47 1029.95 1029.38 1028.76 1028.37 1027.94 1027.44 1026.98 1026.50 1026.09 1025.98 1025.89 1025.78 1025.57 1025.35 1025.06 1024.74
1032.69 1033.54 1034.12 1035.38 1035.94 1036.10 1036.12 1036.15 1036.30 1035.93 1036.02 1035.88 1035.68 1035.16 1034.74 1034.31 1033.83 1033.27 1033.07 1033.29 1033.68 1034.11 1033.93 1034.15 1034.27 1033.97 1033.57 1033.50 1033.43 1033.23 1032.71 1032.40 1032.15 1031.82 1031.14 1030.25 1029.54 1029.13 1028.59 1028.04 1027.63 1027.39 1026.97 1026.61 1026.23 1025.86 1025.84 1025.87 1025.83 1025.77 1025.61 1025.34 1025.06 1024.76
1034.15 1034.55 1035.19 1035.91 1036.60 1036.85 1036.85 1036.81 1036.94 1036.91 1036.50 1036.13 1035.57 1035.15 1034.73 1034.29 1033.78 1033.27 1033.04 1033.11 1033.72 1034.03 1034.28 1033.97 1033.51 1033.27 1033.07 1032.98 1032.87 1032.70 1031.65 1031.99 1031.62 1030.07 1029.47 1028.79 1027.80 1027.17 1026.79 1026.62 1026.18 1026.23 1026.17 1025.96 1025.65 1025.57 1025.73 1025.78 1025.76 1025.70 1025.55 1025.31 1025.03 1024.73
Wind_Speed
29 30 29 30 30 30 31 32 32 33 33 33 30 28 28 24 22 8 3 5 4 2 3 5 8 6 5 4 1 4 5 2 1 4 5 4 4 6 4 1 6 10 9 7 3 5 13 5 3 7 3 6 10 13
28 29 30 31 31 31 31 31 31 30 32 31 32 29 27 26 22 15 4 6 5 1 3 3 2 4 6 5 2 3 3 3 2 5 2 4 3 2 6 5 1 4 4 6 2 3 3 4 2 2 4 13 7 11
27 28 29 30 30 31 31 31 31 31 30 30 30 29 27 24 20 10 4 6 3 2 1 4 4 7 11 11 3 2 2 2 3 2 3 3 4 2 4 2 5 2 3 4 5 4 4 6 7 6 7 10 10 13
26 26 28 30 31 31 30 31 32 30 30 30 30 29 26 22 23 6 3 6 2 2 2 1 4 5 12 11 5 3 5 5 4 2 3 3 3 1 2 4 3 2 2 5 6 4 9 9 8 7 13 14 15 12
25 26 28 29 30 30 30 31 32 32 31 30 29 27 24 23 20 3 1 4 5 3 1 2 5 7 13 11 13 10 5 4 2 3 3 2 2 3 1 3 4 5 2 2 4 9 4 4 4 5 16 12 12 16
25 26 27 29 30 30 31 32 32 33 33 31 29 26 23 19 16 2 2 1 9 2 1 2 2 5 8 8 9 9 4 4 3 3 2 3 2 2 3 4 4 4 5 2 4 8 16 10 9 9 15 12 12 14
25 26 27 28 29 29 31 33 33 33 34 33 30 23 18 13 3 3 1 5 16 3 1 2 3 4 6 5 4 4 3 3 3 2 4 2 3 3 3 4 3 8 9 8 10 12 12 7 6 8 14 13 16 12
24 25 26 28 29 28 31 33 34 35 35 34 28 22 10 6 5 2 2 17 8 1 3 3 3 3 8 4 3 4 3 3 6 2 2 3 2 3 6 4 4 5 9 13 12 11 12 11 12 11 9 10 12 9
24 25 26 27 28 28 32 34 35 35 35 31 25 11 3 5 4 4 22 10 2 3 3 3 3 3 6 3 3 3 2 4 2 4 3 3 4 7 4 3 4 6 4 8 12 14 13 14 11 9 9 9 10 7
24 25 26 27 28 27 32 33 34 34 32 23 7 6 5 3 17 10 7 6 7 6 5 3 3 3 3 3 3 2 3 3 3 3 2 5 4 3 4 5 4 5 6 3 10 8 8 9 9 8 9 6 6 5
24 24 26 27 25 28 32 32 31 30 11 6 6 3 4 13 4 5 5 6 5 6 5 3 3 3 4 3 3 4 1 2 3 2 2 2 3 2 2 5 5 6 8 10 10 10 9 8 6 6 6 6 6 5
23 24 25 26 23 29 31 30 29 9 2 6 8 6 4 7 5 8 2 5 6 5 6 4 4 3 4 3 3 4 3 3 1 2 5 2 0 5 4 4 6 7 9 10 9 9 8 8 6 6 4 4 3 2
23 24 24 22 25 29 30 28 26 21 12 4 5 6 6 6 12 9 9 6 5 7 6 6 5 2 4 4 3 3 6 1 1 5 2 2 5 5 5 5 6 6 7 8 9 8 7 5 5 3 1 2 2 3
23 24 24 16 28 28 29 26 21 10 5 5 6 9 6 5 4 3 3 3 3 5 9 7 4 2 2 5 1 6 2 2 4 4 2 2 2 5 4 4 6 5 6 6 6 5 5 4 3 1 2 2 3 4
23 23 13 13 27 28 26 22 14 5 5 5 6 4 3 3 1 3 3 4 3 6 6 4 3 2 3 4 2 3 6 3 3 4 1 3 6 5 5 5 5 5 4 4 2 3 3 2 0 2 1 3 3 4
20 12 5 25 25 26 21 9 6 4 6 6 8 5 4 3 4 4 3 3 5 8 5 3 3 3 2 2 5 0 5 4 3 0 2 5 5 5 5 5 5 4 3 3 1 0 0 2 2 3 6 4 4 4
8 2 16 21 23 17 16 4 4 9 5 6 2 1 2 1 4 4 2 3 6 4 3 4 3 2 2 3 3 2 2 2 2 4 4 4 5 4 3 5 4 4 3 2 0 2 2 2 1 3 4 4 4 5
3 4 14 17 14 6 4 6 6 6 5 2 2 3 1 2 2 3 3 2 4 4 4 4 3 2 3 2 2 2 2 4 5 5 5 6 4 4 4 4 3 3 2 1 1 2 2 1 2 3 4 4 5 4
3 4 11 12 6 4 4 6 4 4 3 2 2 1 1 3 2 2 2 3 3 3 4 3 4 3 3 3 3 3 3 2 2 3 3 4 4 4 3 3 3 2 0 1 1 2 2 3 3 3 3 3 4 5
6 6 8 9 6 4 5 4 2 5 2 2 2 2 2 2 3 2 3 4 3 2 6 5 3 3 3 3 4 3 3 3 3 3 2 2 2 1 3 1 1 1 1 2 2 4 2 3 2 2 3 4 4 6
4 4 7 5 5 6 5 1 4 2 1 2 2 2 3 3 4 4 4 4 5 3 2 2 2 2 3 3 3 3 5 4 2 1 2 1 1 0 1 2 2 2 2 1 2 4 6 2 4 4 4 5 5 6
1 6 3 5 5 4 5 2 2 1 3 1 3 2 3 3 4 4 3 5 3 1 1 2 2 3 2 3 3 4 3 2 1 2 5 3 2 2 2 2 2 2 2 2 1 2 4 4 5 4 3 6 8 6
6 4 5 5 5 5 3 2 4 5 3 3 3 4 4 3 3 2 3 2 2 2 2 1 1 1 1 1 1 2 4 4 3 2 3 2 1 1 2 3 1 0 3 3 1 2 3 10 8 6 5 7 6 7
8 6 4 3 3 2 3 4 2 3 3 5 4 4 4 3 4 4 2 2 2 2 3 4 0 1 0 1 2 2 3 3 3 2 1 2 2 3 2 3 2 3 4 3 2 4 4 5 10 5 6 6 7 7
4 3 4 2 2 5 5 5 5 4 2 2 3 4 4 3 3 3 0 2 2 2 3 2 2 3 2 2 1 2 1 2 2 2 2 2 1 3 3 2 3 3 2 2 3 6 6 5 5 5 5 6 9 10
2 3 2 4 2 3 4 1 1 2 2 2 2 3 3 3 3 2 2 1 1 1 2 2 2 1 1 0 2 2 2 1 2 1 3 3 3 3 2 1 3 4 2 2 4 7 8 7 7 8 8 10 16 12
4 4 1 1 1 3 3 3 2 3 2 2 2 3 3 2 2 2 0 1 0 0 1 1 0 1 2 3 3 2 2 3 5 4 2 3 3 4 4 3 3 4 5 6 5 6 8 9 10 9 10 7 4 6
3 2 5 2 3 1 5 2 2 3 3 2 2 1 4 4 2 0 1 1 0 1 1 1 1 1 2 3 3 3 4 2 5 3 2 2 3 3 4 5 6 16 9 6 7 7 7 8 10 9 5 5 7 5
2 1 3 3 2 3 2 4 4 2 0 2 3 2 3 1 1 1 1 1 0 1 1 2 2 2 2 3 2 2 1 1 4 4 3 3 3 3 3 4 5 5 5 6 15 14 11 9 7 6 2 5 6 6
1 1 4 2 3 2 3 2 2 2 0 1 1 1 1 1 2 1 0 1 1 1 1 2 2 1 2 2 4 5 1 2 2 3 1 3 4 5 7 7 7 7 5 6 7 8 13 5 6 3 5 4 5 5
2 2 4 3 2 2 2 2 2 0 3 2 2 2 2 2 3 1 1 1 1 0 1 2 3 1 1 3 1 3 4 2 2 4 5 5 6 7 8 8 7 6 6 6 6 7 5 4 3 4 5 6 7 8
2 3 4 3 1 3 3 3 1 2 3 2 2 2 3 2 1 2 1 2 2 2 4 1 2 4 3 3 3 4 11 6 4 4 8 7 8 9 9 8 7 6 7 6 7 6 3 3 3 4 4 6 6 7
3 3 3 4 3 2 2 4 4 3 3 1 2 2 2 2 3 2 0 1 3 3 3 4 4 5 6 6 5 4 6 3 9 16 18 18 20 16 9 6 5 3 5 5 7 2 2 3 3 3 5 5 6 7
Wind_Direction
353 354 355 355 355 357 357 358 357 356 356 358 2 5 2 2 2 358 288 5 313 292 329 359 2 4 342 3 54 146 113 127 95 132 154 169 161 196 99 156 168 187 179 197 141 190 243 157 48 170 186 74 120 124
355 355 355 355 354 356 355 353 354 353 353 352 352 354 360 1 5 3 333 329 316 342 324 317 316 32 359 307 311 14 56 103 133 112 134 124 127 149 154 174 38 202 191 166 144 138 34 34 70 71 135 125 125 113
353 354 353 353 354 354 355 352 350 349 350 349 347 344 348 355 357 30 316 330 322 339 344 24 338 326 344 345 304 68 50 89 73 33 140 126 125 125 147 184 104 309 316 97 125 27 38 27 46 51 95 108 111 118
351 352 354 353 350 351 354 350 348 346 347 346 344 340 337 347 354 41 12 348 328 324 30 7 316 14 316 350 25 23 96 61 83 44 69 85 106 320 133 108 101 17 14 104 65 87 90 40 40 89 87 90 90 72
347 352 354 352 350 348 350 348 347 346 344 343 340 335 335 339 338 324 224 34 4 341 344 336 321 350 347 10 45 44 54 71 38 62 61 79 83 114 20 89 50 342 37 125 151 167 82 97 56 82 92 87 86 98
347 350 353 351 348 347 347 345 345 343 340 338 337 332 334 335 344 337 328 40 0 360 24 34 288 335 342 356 38 44 38 47 56 75 70 66 50 61 81 75 23 358 23 289 116 90 94 92 67 62 90 88 84 87
346 348 351 349 348 346 345 342 341 340 338 335 334 329 331 339 28 72 109 293 340 312 50 27 5 355 331 354 20 7 26 59 71 93 55 76 39 42 58 73 31 35 36 55 92 102 82 24 100 75 88 88 89 84
344 345 349 349 347 346 345 341 340 338 336 333 330 327 328 1 55 32 266 331 338 15 53 75 312 18 359 7 25 352 6 12 24 69 69 38 54 67 77 69 70 49 70 51 50 69 93 108 86 75 81 91 82 77
342 343 346 348 347 347 344 342 341 338 335 332 326 328 35 31 18 280 311 329 9 78 87 57 25 333 339 8 2 10 25 55 323 45 23 18 6 50 39 91 32 355 63 113 84 81 87 86 87 77 80 73 87 79
340 342 345 347 347 347 344 344 342 340 336 336 7 31 0 286 311 322 8 23 17 345 25 44 324 346 334 340 36 17 20 36 56 43 341 59 76 69 26 51 52 27 43 64 95 86 84 79 78 70 70 68 74 70
338 342 344 347 349 346 344 347 344 345 358 12 19 334 264 324 27 29 34 55 333 23 9 334 16 328 355 12 27 19 61 9 72 331 59 67 92 77 35 46 40 62 69 61 76 73 73 90 99 98 79 66 63 55
334 339 341 347 350 345 345 348 345 359 273 266 283 286 329 22 19 62 6 340 38 26 340 344 331 335 310 333 71 349 84 32 90 347 68 69 175 134 127 90 62 58 72 70 68 84 82 80 72 81 70 58 54 10
333 336 340 347 346 344 347 348 345 342 334 10 29 33 31 328 35 42 354 339 356 347 2 332 316 343 335 37 51 52 61 23 341 38 123 164 132 124 112 110 87 67 74 74 67 66 72 77 77 76 48 324 328 298
333 335 341 347 346 345 347 347 351 358 43 59 40 17 65 9 31 14 317 300 321 314 319 314 284 22 305 31 325 74 295 50 49 42 269 214 116 119 102 95 99 77 79 87 84 84 84 76 64 0 236 263 273 296
332 338 349 335 345 343 347 346 0 41 57 52 43 37 29 336 330 343 335 300 359 315 310 310 291 78 334 61 40 77 30 360 185 213 188 141 120 120 108 105 112 112 103 82 69 74 63 53 161 265 225 272 267 287
338 343 319 343 339 342 347 355 22 64 50 58 38 27 316 46 315 345 338 306 352 320 282 230 285 8 3 110 45 242 98 215 252 127 100 117 107 98 107 100 102 115 112 105 82 223 328 23 1 314 312 301 293 277
14 279 321 335 340 346 6 44 44 46 97 53 342 308 169 246 228 268 314 294 319 317 355 305 339 348 331 49 46 7 83 15 99 97 82 88 107 113 109 106 97 101 100 112 93 3 331 356 327 358 341 295 289 286
207 290 330 345 349 352 30 28 77 71 58 277 95 269 283 205 256 291 288 318 349 342 322 6 302 329 19 54 32 64 79 57 65 80 88 94 87 79 88 94 91 88 72 15 248 260 243 351 336 280 273 285 307 295
264 356 352 358 13 62 48 7 46 104 209 233 276 327 264 275 244 292 297 306 245 284 312 334 33 29 27 23 2 54 61 70 108 84 74 68 77 87 90 81 86 69 348 270 324 299 276 252 247 279 287 302 297 304
78 45 13 32 37 75 39 348 21 94 138 231 44 347 263 255 299 335 332 356 355 35 34 34 25 17 353 358 347 9 30 31 100 113 103 88 61 72 81 110 92 323 351 1 331 16 14 331 292 296 298 293 326 306
74 358 31 58 42 56 85 1 32 129 236 94 291 30 296 359 20 6 341 335 54 48 34 359 357 352 15 9 0 10 33 25 52 122 171 163 220 49 6 9 2 25 32 345 352 335 6 300 292 302 288 289 281 271
182 45 64 16 70 23 78 325 135 290 70 230 29 33 29 14 335 322 301 41 54 285 310 302 331 330 359 20 3 22 326 337 13 13 41 30 33 18 5 351 8 344 335 288 268 283 297 293 290 275 283 300 317 306
73 56 47 31 62 44 272 14 61 1 78 305 26 38 355 342 249 333 55 215 263 259 272 306 333 286 340 350 85 50 32 26 16 4 0 6 326 328 344 324 296 219 324 303 204 281 295 319 323 318 305 319 304 302
41 52 65 55 61 226 11 13 14 41 39 30 35 354 334 281 317 47 64 338 313 329 355 344 338 8 289 25 24 7 5 6 341 356 45 56 25 315 269 269 262 234 221 266 301 306 303 297 320 313 296 294 297 288
79 341 80 336 334 58 38 6 347 48 60 346 37 345 315 5 45 41 289 285 335 4 0 356 34 32 61 340 340 359 57 37 19 321 287 162 251 319 337 328 298 253 168 43 332 320 306 293 278 275 286 291 290 294
187 303 108 183 286 115 185 87 75 170 123 29 249 264 15 67 54 276 257 253 328 342 353 5 359 348 27 79 296 321 316 147 115 265 274 177 167 158 245 339 338 315 210 235 286 294 296 296 297 297 298 298 314 328
194 230 298 337 104 112 81 46 52 102 105 166 259 15 57 43 274 255 108 45 279 32 347 321 317 320 303 307 299 287 268 195 210 230 247 234 228 200 177 189 261 257 285 268 257 276 289 294 294 292 295 296 286 292
155 184 159 197 73 8 127 79 116 167 208 218 96 31 171 201 237 236 218 271 287 333 339 332 342 321 301 295 290 305 305 299 272 263 270 267 231 219 216 243 254 285 303 300 284 276 270 276 284 290 293 300 305 300
100 131 107 63 63 52 143 158 188 206 138 130 153 231 237 258 218 210 288 230 34 76 36 351 328 332 309 307 278 257 219 350 52 49 26 320 331 305 216 254 261 274 281 290 304 312 308 293 335 335 299 313 304 301
166 137 94 77 114 184 232 175 189 249 225 130 288 308 283 315 264 191 60 48 87 187 236 250 280 19 311 341 324 331 268 194 176 138 207 268 257 282 298 292 288 284 278 279 284 293 312 324 331 332 333 323 326 323
78 81 77 59 118 247 231 305 329 40 40 33 342 140 237 279 306 236 165 181 152 85 7 330 312 283 280 309 299 330 317 285 229 253 262 263 265 271 274 274 273 272 275 277 280 284 283 309 297 315 321 325 323 342
39 79 124 113 261 289 22 60 55 73 350 42 304 3 344 32 301 281 194 117 68 10 320 51 288 287 240 249 243 236 256 272 280 273 280 274 268 262 263 263 263 258 264 264 274 282 263 283 299 313 314 317 321 323
70 64 53 86 43 13 323 77 26 10 9 1 281 203 209 194 219 250 160 106 159 202 253 264 261 261 262 257 242 256 273 255 284 306 319 313 312 318 315 289 285 279 282 276 295 260 250 291 298 312 320 320 319 322